www.pogodaiklimat.ru

Погода и климат >> Архив погоды >> Россия >> Краснодарский край >> Лабинск


ПОГОДА в Лабинске

  • Прогноз погоды в Лабинске
  • Монитор погоды в Лабинске

АРХИВ ПОГОДЫ в Лабинске

Время (UTC), дата Ветер
(напр.,м/с)
 
Видим.   Явления Облачность Т
(С)
Тd
(С)
f
(%)
Тe
(С)
Тes
(С)
Комфортность P
(гПа)
Po
(гПа)
Тmin
(С)
Tmax
(С)
R
(мм)
R24
(мм)
S
(см)
06 17.02 З 4
{10}
4000 м 10/10 600 м
[Sc]
+1.3 +0.1 92 -4 -4 1022.1 989.2
09 17.02 З 5
{10}
10 км 10/10 600 м
[Sc]
+6.3 +1.9 73 +2 +2 1019.9 987.7
12 17.02 З 8-11
{14}
10 км 3/1 600 м
[Cu Sc Ci fib]
+10.4 +0.4 50 +7 +7 1016.7 985.0
15 17.02 З 5
{12}
10 км 10/4 600 м
[Sc Ac trans Ci fib]
+9.0 -2.3 45 +6 +6 1015.4 983.6 +10.7
18 17.02 З 6
{10}
10 км 10/3 1000 м
[Sc Ac trans Ci fib]
+8.2 -1.9 49 +5 +5 1014.2 982.4
21 17.02 ЮЗ 7-11
{12}
10 км 10/3 1000 м
[Sc Ac trans Ci fib]
+8.3 -2.1 48 +5 +5 1012.7 980.9
00 18.02 З 7-13
{14}
10 км 3/0
[Ci fib]
+6.6 -1.0 58 +2 +2 1012.1 980.2
03 18.02 З 7-12
{13}
10 км 4/0
[Ci fib]
+5.1 +0.9 74 -0 -0 1011.2 979.1 +4.9
06 18.02 ЮЗ 8-11
{14}
50 км 10/8 1000 м
[Sc Ac trans Ci sp]
+7.2 -0.8 57 +3 +3 1011.8 979.9 +4.9
09 18.02 З 7-13
{16}
4000 м слаб. ливневой дождь 10/10 600 м
[Cb cap]
+3.4 +1.7 89 -3 -3 1014.3 981.9
12 18.02 З 7-10
{13}
4000 м дымка {ливн. осадки} 10/10 300 м
[Sc diur, vesp]
+5.6 +1.3 74 +1 +1 1013.8 981.7
15 18.02 З 5
{12}
10 км 10/3 1000 м
[Sc diur, vesp Ac cuf Ci sp]
+3.5 -3.0 62 -1 -1 1016.1 983.7 +7.4 0.5
18 18.02 З 2 10 км 8/3 1000 м
[Sc Ac trans Ci sp]
+1.0 -3.2 74 -2 -2 1019.1 986.3
21 18.02 СЗ 1 10 км 8/8 1000 м
[Sc]
-0.7 -3.9 79 -3 -3 1020.9 987.8
00 19.02 З 1 10 км 5/0
[Ac trans]
-3.9 -6.6 81 -6 -6 1022.3 988.8
03 19.02 штиль 0 10 км ясно -6.4 -7.6 91 -7 -7 1024.1 990.2 -6.5
06 19.02 штиль 0 50 км ясно -2.1 -6.1 74 -3 0 1025.8 992.3 -7.6
09 19.02 СЗ 2 50 км ясно +1.2 -7.1 54 -2 +6 1026.4 993.3
12 19.02 СЗ 2 10 км ясно +3.5 -7.9 43 +1 +5 1026.1 993.4
15 19.02 С 2 10 км ясно -1.5 -8.0 61 -5 -5 1027.4 994.0 +3.8
18 19.02 ЮВ 1 10 км ясно -4.7 -8.1 77 -7 -7 1028.4 994.6
21 19.02 Ю 1 10 км ясно -5.8 -9.3 76 -8 -8 1027.4 993.5
00 20.02 ЮВ 1 10 км ясно -7.1 -9.2 85 -9 -9 1026.0 991.9
03 20.02 ЮВ 2 10 км ясно -6.8 -9.1 84 -11 -11 1025.0 991.0 -8.3
06 20.02 Ю 2 50 км ясно -1.1 -5.6 71 -5 -2 1023.7 990.5
09 20.02 С 2 10 км ясно +6.8 -7.4 36 +5 +13 1021.4 989.2
12 20.02 З 2 10 км ясно +8.8 -10.8 24 +8 +12 1019.6 987.6
15 20.02 СЗ 2 10 км ясно +3.4 -9.6 38 +1 +1 1019.6 987.0 +9.2
18 20.02 ЮВ 2 10 км ясно -2.6 -8.5 64 -6 -6 1020.0 986.7
21 20.02 ЮВ 2 10 км 4/0
[Ci fib]
-2.6 -7.7 68 -6 -6 1019.6 986.3
00 21.02 ЮВ 1 10 км ясно -2.3 -7.0 70 -4 -4 1018.9 985.7
03 21.02 ЮВ 2 10 км ясно -3.9 -7.8 74 -8 -8 1018.6 985.2 -4.4
06 21.02 Ю 2 10 км 8/0
[Ac trans Ci fib]
+1.1 -6.4 57 -2 0 1018.3 985.5
09 21.02 З 1 10 км 6/3 1000 м
[Sc Ac trans Ci fib]
+9.5 -8.1 28 +10 +15 1016.3 984.6
12 21.02 З 4 10 км 9/8 1000 м
[Sc Ac trans Ci fib]
+10.4 -0.1 48 +8 +9 1014.6 983.0
15 21.02 З 5
{14}
10 км 8/8 600 м
[Cb cap]
+7.4 -0.8 56 +4 +4 1015.7 983.8 +11.2
18 21.02 З 8-13
{13}
10 км 4/4 1000 м
[Sc]
+6.1 -3.7 49 +1 +1 1016.9 984.7
21 21.02 ЮЗ 6-12
{15}
10 км 10/10 1000 м
[Sc]
+6.8 -4.5 44 +3 +3 1016.1 984.0
00 22.02 З 6-10
{12}
10 км 8/6 1000 м
[Sc Ci fib]
+2.9 -0.3 79 -3 -3 1017.3 984.8
03 22.02 З 6-10
{10}
10 км 10/10 1000 м
[Sc]
+4.1 +0.1 75 -1 -1 1017.3 984.9 +2.1
06 22.02 З 6-11
{13}
10 км 10/8 600 м
[Cb cap Ac As]
+3.8 -0.2 75 -2 -1 1017.4 984.9
09 22.02 С 2
{12}
10 км 10/8 600 м
[Cb cap Ac As]
+3.6 +0.4 80 +1 +1 1017.2 984.7
12 22.02 СВ 1 10 км 10/8 600 м
[Cb cap Ac As]
+4.5 +0.6 76 +3 +4 1017.1 984.8
15 22.02 В 2 10 км 10/10 600 м
[Cb cap]
+4.3 +0.3 75 +2 +2 1017.3 984.9 +5.9
18 22.02 Ю 1 10 км 10/4 600 м
[Cb cap Ac As]
+1.7 -1.2 81 0 0 1018.2 985.5
21 22.02 В 3 10 км 10/0
[Ac und]
+0.6 -2.1 82 -4 -4 1017.8 985.0
00 23.02 В 1 10 км 10/0
[Ac As]
-2.1 -3.6 89 -4 -4 1018.8 985.6
03 23.02 ЮВ 1 10 км 10/10 600 м
[Cb cap]
-0.5 -2.1 89 -3 -3 1019.9 986.9 -2.3
06 23.02 Ю 1 10 км 10/10
[Cb cap]
+1.6 -1.3 81 -0 -0 1021.5 988.7
09 23.02 СВ 2 10 км 10/10 1000 м
[Sc diur, vesp]
+7.8 -0.3 57 +6 +6 1020.9 988.8
12 23.02 С 4 10 км 10/10 1000 м
[Sc diur, vesp]
+9.0 +0.3 54 +6 +6 1021.1 989.1
15 23.02 СЗ 2 10 км 10/4 1000 м
[Sc Ac und]
+3.6 +1.8 88 +1 +1 1024.6 992.0 +10.4
18 23.02 СЗ 1 4000 м дымка {ливн. осадки} 10/10 600 м
[Cb cap]
+1.9 +0.9 93 0 0 1026.6 993.7
21 23.02 С 2 1000 м дымка 10/10 1000 м
[Cb cap]
+0.2 -0.5 95 -4 -4 1027.5 994.3
00 24.02 СЗ 2 500 м туман ?/? -1.4 -2.0 96 -5 -5 1028.3 994.9

 

Местоположение метеостанции Лабинск (Краснодарский край, Россия): широта 44.67 долгота 40.75 высота над уровнем моря 264 м.

В архиве по умолчанию представлена погода в Лабинске за последнюю неделю. Архивные данные за месяц целиком и за предыдущие месяцы, начиная с января 2011 года, Вы можете получить, выбрав интересующий диапазон дат из раскрывающегося списка и нажав кнопку "Ввод!".


*Определитесь, кто Вы:
робот инопланетянин человек

Внимание! Время в таблицах - всемирное. Для получения местного времени необходимо прибавить поправку, которая равна 3 ч.

Смотрите также архив погоды в соседних городах и на ближайших метеорологических станциях:

Погода в Дондуковской (Адыгея, Россия) (38 км)
Погода в Армавире (Краснодарский край, Россия) (45 км)
Погода в Майкопе (Адыгея, Россия) (53 км)
Погода в Шунтуке (Адыгея, Россия) (55 км)
Погода в Псебае (Краснодарский край, Россия) (60 км)
Погода в Отрадной (Краснодарский край, Россия) (65 км)
Погода в Белореченске (Краснодарский край, Россия) (68 км)
Погода в Кропоткине (Краснодарский край, Россия) (86 км)
Погода в Гузерипле (Адыгея, Россия) (89 км)
Погода в Невинномысске (Ставропольский край, Россия) (97 км)

Пояснения к столбцам:

Ветер - указаны скорость ветра в м/с - средняя за 10 мин, порывы в срок и между сроками (в фигурных скобках) и направление, откуда дует ветер: С - северный, СВ - северо-восточный, В - восточный, ЮВ - юго-восточный, Ю - южный, ЮЗ - юго-западный, З - западный, СЗ - северо-западный.
Видимость - горизонтальная дальность видимости в метрах или километрах. При видимости от 1 до 10 км при отсутствии осадков обычно наблюдается дымка, при ухудшении видимости до 1 км и менее - туман. В сухую погоду видимость может ухудшаться дымом, пылью или мглою.
Явления - указаны атмосферные явления, наблюдавшиеся в срок или в последний час перед сроком; фигурными скобками обозначены явления, наблюдавшиеся между сроками (за 1-3 часа до срока); квадратными скобками обозначены град или гололедные отложения с указанием их диаметра в мм.
Облачность - указаны через наклонную черту общая и нижняя облачность в баллах и высота нижней границы облаков в метрах; квадратными скобками обозначены формы облаков: Ci - перистые, Cs - перисто-слоистые, Cc - перисто-кучевые, Ac - высококучевые, As - высокослоистые, Sc - слоисто-кучевые, Ns - слоисто-дождевые, Cu - кучевые, Cb - кучево-дождевые. Подробнее классификацию облаков см. в Атласе облаков (PDF).
T - Температура воздуха - температура, измеренная на высоте 2 м над землей.
Td - Температура точки росы - температура, при понижении до которой содержащийся в воздухе водяной пар достигнет насыщения.
f - Относительная влажность воздуха - влажноcть воздуха, измеренная на высоте 2 м над землей.
Te - Эффективная температура - температура, которую ощущает одетый по сезону человек в тени. Характеристика душности погоды. При расчете учитывается влияние влажности воздуха и скорости ветра на теплоощущения человека.
Tes - Эффективная температура на солнце - температура, которую ощущает человек, с поправкой на солнечный нагрев. Характеристика знойности погоды. Зависит от высоты солнца над горизонтом, облачности и скорости ветра. Ночью, в пасмурную погоду, а также при ветре 12 м/с и более поправка равна нулю.
P - Атмосферное давление - приведенное к уровню моря атмосферное давление.
Po - Атмосферное давление - измеренное на уровне метеостанции атмосферное давление.
Tmin - Минимальная температура - минимум температуры воздуха на высоте 2 м над землей.
Tmax - Максимальная температура - максимум температуры воздуха на высоте 2 м над землей.
R - Количество осадков - Количество выпавших осадков за период времени, мм. При наведении курсора мыши на число - период времени, за который выпало указанное количество осадков.
R24 - Количество осадков - Количество выпавших осадков за 24 часа, мм.
S - Снежный покров - Высота снежного покрова, см. При наведении курсора мыши на число - состояние снежного покрова и степень покрытия местности в баллах.